Home > Weather > Nicosia > Past weeks

Flag for Cyprus Weather for the Past 2 Weeks in Nicosia, Cyprus

Now
57 °F

Broken clouds.


Feels Like: 53 °F
Forecast: 44 / 56 °F
Wind: 17 mph from West

Location: Ercan

Current Time: Feb 6, 2016 at 2:36:26 PM

Latest Report: Feb 6, 2016 at 1:50 PM


Visibility: N/A

Pressure: 29.74 "Hg

Humidity: 44%

Dew point: 36 °F

Location of NicosiaLocation

Historic Weather in Nicosia — Graph

°F

Nicosia Temperature Yesterday

Maximum temperature yesterday: 68 °F (at 12:50 PM)
Minimum temperature yesterday: 48 °F (at 1:20 AM)
Average temperature yesterday: 57 °F

High & Low Weather Summary for the Past Weeks

 TemperatureHumidityPressure
High70 °F (Feb 2, 1:50 PM)100% (Jan 24, 4:20 AM)30.42 "Hg (Jan 24, 4:20 AM)
Low28 °F (Jan 26, 3:20 AM)30% (Feb 2, 1:20 PM)29.77 "Hg (Feb 6, 12:50 PM)
Average49 °F69%30.17 "Hg
* Reported Jan 22 1:20 PM — Feb 6 1:20 PM, Nicosia, Weather by CustomWeather, © 2016

Note: Actual official high and low records may vary slightly from our data, if they occured in-between our weather recording intervals... More about our weather records

Advertising

Nicosia Weather History for the Previous 24 Hours

 ConditionsComfort  
Time TempWeatherWind HumidityBarometerVisibility
1:20 PM
Sat, Feb 6
59 °FBroken clouds.18 mph48%29.77 "HgN/A
12:50 PM57 °FBroken clouds.9 mph48%29.77 "HgN/A
12:20 PM55 °FBroken clouds.7 mph63%29.80 "HgN/A
11:50 AM55 °FSprinkles. Broken clouds.20 mph55%29.83 "HgN/A
11:20 AM59 °FPartly sunny.12 mph51%29.80 "HgN/A
10:50 AM57 °FScattered clouds.10 mph55%29.80 "HgN/A
10:20 AM57 °FScattered clouds.8 mph55%29.80 "HgN/A
9:50 AM55 °FScattered clouds.10 mph63%29.80 "HgN/A
9:20 AM54 °FBroken clouds.8 mph77%29.83 "HgN/A
8:50 AM50 °FBroken clouds.7 mph82%29.80 "HgN/A
8:20 AM50 °FScattered clouds.6 mph88%29.80 "HgN/A
7:50 AM48 °FBroken clouds.No wind87%29.80 "HgN/A
7:20 AM48 °FSprinkles. Broken clouds.7 mph87%29.80 "Hg5 mi
6:50 AM48 °FSprinkles. Broken clouds.No wind82%29.80 "Hg5 mi
5:50 AM50 °FPassing clouds.No wind82%29.80 "HgN/A
5:20 AM48 °FPassing clouds.No wind82%29.80 "HgN/A
4:50 AM50 °FPassing clouds.5 mph82%29.80 "HgN/A
3:50 AM50 °FPassing clouds.9 mph82%29.80 "HgN/A
3:20 AM50 °FSprinkles. Partly cloudy.13 mph88%29.83 "HgN/A
2:20 AM48 °FPassing clouds.6 mph94%29.83 "HgN/A
1:50 AM50 °FPassing clouds.5 mph94%29.83 "HgN/A
1:20 AM50 °FPassing clouds.6 mph88%29.83 "HgN/A
12:50 AM50 °FPassing clouds.6 mph94%29.83 "HgN/A
12:20 AM52 °FPassing clouds.7 mph94%29.83 "HgN/A
11:50 PM
Fri, Feb 5
54 °FPassing clouds.12 mph88%29.83 "HgN/A
11:20 PM55 °FSprinkles. Partly cloudy.8 mph88%29.86 "HgN/A
11:00 PM55 °FPartly cloudy.5 mph88%29.86 "HgN/A
10:20 PM57 °FPartly cloudy.7 mph77%29.86 "HgN/A
9:50 PM57 °FPartly cloudy.12 mph72%29.86 "HgN/A
9:20 PM59 °FPartly cloudy.13 mph68%29.86 "HgN/A
8:50 PM57 °FPartly cloudy.16 mph72%29.86 "HgN/A
8:20 PM57 °FPartly cloudy.13 mph72%29.86 "HgN/A
7:50 PM57 °FPartly cloudy.12 mph72%29.86 "HgN/A
7:20 PM59 °FPartly cloudy.8 mph68%29.86 "HgN/A
6:50 PM59 °FPartly cloudy.9 mph68%29.86 "HgN/A
6:20 PM59 °FPartly cloudy.9 mph72%29.86 "HgN/A
5:50 PM61 °FPartly cloudy.12 mph68%29.86 "HgN/A
5:20 PM63 °FPartly cloudy.15 mph64%29.83 "HgN/A
4:50 PM63 °FBroken clouds.12 mph64%29.86 "HgN/A
4:20 PM63 °FPartly sunny.10 mph73%29.86 "HgN/A
3:50 PM63 °FScattered clouds.13 mph73%29.86 "HgN/A
3:20 PM64 °FScattered clouds.13 mph64%29.86 "HgN/A
2:50 PM66 °FScattered clouds.14 mph60%29.86 "HgN/A
2:20 PM66 °FScattered clouds.15 mph60%29.86 "HgN/A
Weather by CustomWeather, © 2016

See weather overviewHow to use our weather pages